Location: Newark
(45.2862°N, 9.8850°E)
Time: 04:43:56
(UTC+00:00)

N. Korean satellite - Pass Details

Date: 14 December 2019
Orbit: 454 x 508 km, 97.2° (Epoch: 20 January)

Event Time Altitude Azimuth Distance (km) Brightness Sun altitude
Rises 17:02:21 0° 194° (SSW) 2,597 10.7 -14.1°
Reaches altitude 10° 17:04:42 10° 207° (SSW) 1,714 10.0 -14.5°
Maximum altitude 17:07:49 26° 265° (W) 1,032 9.1 -15.1°
Drops below altitude 10° 17:10:56 10° 323° (NW) 1,710 9.6 -15.6°
Sets 17:13:17 0° 336° (NNW) 2,591 10.3 -16.0°
